Plymouth, MA

1:49 PM EST on December 08, 2016 (GMT -0500)
Plymouth Municipal

Weather History for KPYM - October, 2013

Change the Weather History Date:

Thursday, October 10, 2013

  Actual Average Record
Temperature  
Mean Temperature 56 °F -  
Max Temperature 63 °F 64 °F 86 °F (1949)
Min Temperature 51 °F 43 °F 30 °F (1975)
Degree Days  
Heating Degree Days 9    
Growing Degree Days 6 (Base 50)    
Moisture  
Dew Point 51 °F    
Average Humidity 78    
Maximum Humidity 87    
Minimum Humidity 66    
Precipitation  
Precipitation 0.00 in - - ()
Sea Level Pressure  
Sea Level Pressure 30.26 in    
Wind  
Wind Speed 7 mph (NE)    
Max Wind Speed 15 mph    
Max Gust Speed -    
Visibility 10 miles    
Events      
Averages and records for this station are not official NWS values.
T = Trace of Precipitation, MM = Missing Value Source: NWS Daily Summary

Daily Weather History Graph

Daily Weather History Graph

Search for Another Location

Airport or City:

Trip Planner

Search our weather history database for the weather conditions in past years. The results will help you decide how hot, cold, wet, or windy it might be!

Date:

Astronomy

Oct. 10, 2013 Rise Set
Actual Time 6:49 AM EDT 6:09 PM EDT
Civil Twilight 6:21 AM EDT 6:36 PM EDT
Nautical Twilight 5:49 AM EDT 7:09 PM EDT
Astronomical Twilight 5:17 AM EDT 7:41 PM EDT
Moon 12:42 PM EDT (10/10) 10:40 PM EDT (10/10)
Length of Visible Light 12h 15m
Length of Day
11h 19m
Waxing Crescent, 35% of the Moon is Illuminated
Oct 10
Waxing Crescent
Oct 11
First Quarter
Oct 18
Full
Oct 26
Last Quarter
Nov 3
New

Hourly Weather History & Observations

Time (EDT) Temp. Dew Point Humidity Pressure Visibility Wind Dir Wind Speed Gust Speed Precip Events Conditions
12:52 AM 53.1 °F 43.0 °F 69% 30.34 in 10.0 mi ENE 5.8 mph - N/A   Clear
1:52 AM 54.0 °F 43.0 °F 66% 30.34 in 10.0 mi ENE 4.6 mph - N/A   Clear
2:52 AM 53.1 °F 43.0 °F 69% 30.32 in 10.0 mi ENE 5.8 mph - N/A   Clear
3:52 AM 51.1 °F 44.1 °F 77% 30.32 in 10.0 mi NE 4.6 mph - N/A   Clear
4:52 AM 54.0 °F 46.0 °F 75% 30.30 in 10.0 mi ENE 4.6 mph - N/A   Clear
5:52 AM 52.0 °F 46.9 °F 83% 30.31 in 10.0 mi Calm Calm - N/A   Clear
6:52 AM 53.1 °F 48.0 °F 83% 30.31 in 10.0 mi NE 3.5 mph - N/A   Clear
7:52 AM 55.9 °F 50.0 °F 80% 30.30 in 10.0 mi NE 3.5 mph - N/A   Clear
8:52 AM 60.1 °F 52.0 °F 75% 30.30 in 10.0 mi ENE 8.1 mph - N/A   Clear
9:52 AM 60.1 °F 52.0 °F 75% 30.30 in 10.0 mi ENE 6.9 mph - N/A   Partly Cloudy
10:52 AM 60.1 °F 52.0 °F 75% 30.30 in 10.0 mi NE 10.4 mph - N/A   Partly Cloudy
11:52 AM 61.0 °F 53.1 °F 75% 30.29 in 10.0 mi NE 8.1 mph - N/A   Mostly Cloudy
12:52 PM 61.0 °F 53.1 °F 75% 30.25 in 10.0 mi NE 15.0 mph - N/A   Mostly Cloudy
1:52 PM 61.0 °F 53.1 °F 75% 30.25 in 10.0 mi NE 10.4 mph - N/A   Mostly Cloudy
2:52 PM 60.1 °F 53.1 °F 78% 30.25 in 10.0 mi NE 6.9 mph - N/A   Mostly Cloudy
3:52 PM 60.1 °F 53.1 °F 78% 30.22 in 10.0 mi NE 6.9 mph - N/A   Overcast
4:52 PM 59.0 °F 53.1 °F 81% 30.21 in 10.0 mi NE 8.1 mph - N/A   Overcast
5:52 PM 59.0 °F 53.1 °F 81% 30.20 in 10.0 mi NE 9.2 mph - N/A   Overcast
6:52 PM 59.0 °F 53.1 °F 81% 30.21 in 10.0 mi NE 8.1 mph - N/A   Overcast
7:48 PM 59.0 °F 53.6 °F 82% 30.20 in 10.0 mi NE 10.4 mph - N/A   Overcast
7:52 PM 59.0 °F 54.0 °F 83% 30.20 in 10.0 mi NE 8.1 mph - N/A   Overcast
8:52 PM 59.0 °F 54.0 °F 83% 30.19 in 10.0 mi NE 10.4 mph - N/A   Overcast
9:52 PM 59.0 °F 55.0 °F 87% 30.19 in 10.0 mi NE 10.4 mph - N/A   Overcast
10:52 PM 59.0 °F 55.0 °F 87% 30.18 in 10.0 mi NE 8.1 mph - N/A   Overcast
11:52 PM 59.0 °F 55.0 °F 87% 30.16 in 10.0 mi NNE 8.1 mph - N/A   Overcast